Regional Weather Roundup
Issued by NWS Burlington, VT

Home | Current Version | Previous Version | Text Only | Print | Product List | Glossary On
Versions: 1 2 3 4 5 6 7 8 9 10 11 12 13 14 15 16 17 18 19 20 21 22 23 24 25 26 27 28 29 30 31 32 33 34 35 36 37 38 39 40 41 42 43 44 45 46 47 48 49 50
000
ASUS41 KBTV 031330
RWRBTV
VERMONT REGIONAL WEATHER ROUNDUP
NATIONAL WEATHER SERVICE BURLINGTON VT
900 AM EDT WED JUN 03 2015

NOTE: "FAIR" INDICATES FEW OR NO CLOUDS BELOW 12,000 FEET WITH NO
SIGNIFICANT WEATHER AND/OR OBSTRUCTIONS TO VISIBILITY.

* THESE REPORTS ARE NOT UNDER NWS QUALITY CONTROL AND/OR DO NOT
  REPORT WEATHER SUCH AS PRECIPITATION AND FOG.

VTZ001>019-031400-
_____VERMONT_____


CITY           SKY/WX    TMP DP  RH WIND       PRES   REMARKS
BURLINGTON     PTSUNNY   50  42  74 NW7       30.30S
MONTPELIER     MOSUNNY   47  39  74 E6        30.31S
MORRISVILLE    PTSUNNY   49  39  68 CALM      30.30S
ST. JOHNSBURY*   N/A     49  38  65 MISG      30.26R
LYNDONVILLE*   PTSUNNY   47  38  69 NW7       30.28S
MIDDLEBURY*      N/A     51  46  83 N5        30.28F
RUTLAND*       MOSUNNY   48  37  66 NW6       30.27F
SPRINGFIELD    SUNNY     52  38  58 VRB7      30.26S
HIGHGATE*        N/A     47  41  78 N5        30.31S
NEWPORT*       PTSUNNY   47  40  76 NW7       30.29S
BENNINGTON     MOSUNNY   53  44  71 VRB3      30.26R
SUTTON*          N/A     45 N/A N/A MISG        N/A
GALLUP MILLS*    N/A     46 N/A N/A MISG        N/A
MT. MANSFIELD*   N/A     37 N/A N/A CALM        N/A

_____LAKE CHAMPLAIN_____


CITY           SKY/WX    TMP DP  RH WIND       PRES   REMARKS
BURTON ISLAND*   N/A     50  43  76 NE1         N/A
COLCHESTER RF*   N/A     48  43  81 N8          N/A
DIAMOND ISL*     N/A     48  43  81 N12         N/A

$$

NYZ007-026>031-035-052-083-031400-
_____NORTHERN NEW YORK_____


CITY           SKY/WX    TMP DP  RH WIND       PRES   REMARKS
PLATTSBURGH    MOSUNNY   49  44  83 NE7       30.31R
SARANAC LAKE   MOSUNNY   47  41  80 NE3       30.26S
MASSENA        SUNNY     53  44  71 E9        30.31R
OGDENSBURG*    SUNNY     59  48  67 E7        30.28S
POTSDAM*       MOSUNNY  -20 -27  69 E6        30.28F
STARK FALLS*     N/A     52 N/A N/A E5          N/A
WATERTOWN      SUNNY     56  45  66 NE7       30.27S
ALBANY         MOSUNNY   54  43  66 N7        30.28S
GLENS FALLS    CLOUDY    52  43  71 W5        30.27F

$$
NHZ002-005-011-031400-
_____NEW HAMPSHIRE_____


CITY           SKY/WX    TMP DP  RH WIND       PRES   REMARKS
LEBANON        PTSUNNY   52  40  63 N7        30.26S
KEENE          SUNNY     54  39  58 N8        30.25F
MT WASHINGTON  CLOUDY    32  25  74 N36         N/A
PLYMOUTH         N/A     52  45  78 W10       30.24S
WHITEFIELD     CLOUDY    49  39  68 VRB3      30.25R

$$

_____REGIONAL QUEBEC LOCATIONS_____


CITY           SKY/WX    TMP DP  RH WIND       PRES   REMARKS
MONTREAL       PTSUNNY   50  41  71 E3        30.32R
QUEBEC CITY    PTSUNNY   52  37  58 NE10      30.28R
SHERBROOKE     PTSUNNY   48  41  76 E6        30.28R

_____REGIONAL ONTARIO LOCATIONS_____


CITY           SKY/WX    TMP DP  RH WIND       PRES   REMARKS
OTTAWA         MOSUNNY   54  46  76 S9        30.29S

______KEY______
VSB  - VISIBILITY IN MILES
WCI  - WIND CHILL INDEX
HX   - HEAT INDEX
$$
NNNN


USA.gov is the U.S. government's official web portal to all federal, state and local government web resources and services.